Weather History for KI75 - November, 2011

Change the Weather History Date:

Wednesday, November 23, 2011

  Actual Average (KLWD) Record (KLWD)
Temperature  
Mean Temperature 42 °F 36 °F  
Max Temperature 46 °F 45 °F 71 °F (1966)
Min Temperature 37 °F 27 °F 7 °F (1970)
Degree Days  
Heating Degree Days 24 29  
Month to date heating degree days 544  
Since 1 July heating degree days 1028  
Cooling Degree Days 0 0  
Month to date cooling degree days 0  
Year to date cooling degree days 946  
Moisture  
Dew Point 36 °F    
Average Humidity 87    
Maximum Humidity 93    
Minimum Humidity 76    
Precipitation  
Precipitation 0.00 in 0.05 in 0.37 in (1983)
Month to date precipitation 1.81  
Sea Level Pressure  
Sea Level Pressure 30.17 in    
Wind  
Wind Speed 6 mph (South)    
Max Wind Speed 14 mph    
Max Gust Speed -    
Visibility 5 miles    
Events      
T = Trace of Precipitation, MM = Missing Value Source: NWS Daily Summary

Daily Weather History Graph

Daily Weather History Graph

Search for Another Location

Airport or City:

Trip Planner

Search our weather history database for the weather conditions in past years. The results will help you decide how hot, cold, wet, or windy it might be!

Date:

Astronomy

Nov. 23, 2011 Rise Set
Actual Time 7:11 AM CST 4:50 PM CST
Civil Twilight 6:41 AM CST 5:20 PM CST
Nautical Twilight 6:07 AM CST 5:54 PM CST
Astronomical Twilight 5:34 AM CST 6:27 PM CST
Moon 5:16 AM CST (11/23) 3:32 PM CST (11/23)
Length of Visible Light 10h 39m
Length of Day
9h 39m
Waning Crescent, 3% of the Moon is Illuminated
Nov 23
Waning Crescent
Nov 25
New
Dec 2
First Quarter
Dec 10
Full
Dec 17
Last Quarter

Hourly Weather History & Observations

Time (CST) Temp. Windchill Dew Point Humidity Pressure Visibility Wind Dir Wind Speed Gust Speed Precip Events Conditions
12:55 AM 39.2 °F 37.0 °F 37.4 °F 93% 30.14 in 3.0 mi SW 3.5 mph - N/A   Overcast
1:35 AM 39.2 °F 37.0 °F 37.4 °F 93% 30.14 in 3.0 mi SW 3.5 mph - N/A   Overcast
1:55 AM 39.2 °F 37.0 °F 37.4 °F 93% 30.14 in 4.0 mi WSW 3.5 mph - N/A   Overcast
2:15 AM 41.0 °F 39.0 °F 37.4 °F 87% 30.15 in 5.0 mi SW 3.5 mph - N/A   Overcast
2:35 AM 41.0 °F 39.0 °F 37.4 °F 87% 30.15 in 7.0 mi WSW 3.5 mph - N/A   Overcast
2:55 AM 41.0 °F 39.0 °F 37.4 °F 87% 30.15 in 5.0 mi SW 3.5 mph - N/A   Overcast
3:35 AM 41.0 °F 36.4 °F 37.4 °F 87% 30.15 in 5.0 mi SW 6.9 mph - N/A   Overcast
4:15 AM 41.0 °F 37.1 °F 37.4 °F 87% 30.15 in 5.0 mi SSW 5.8 mph - N/A   Overcast
4:35 AM 41.0 °F 38.0 °F 35.6 °F 81% 30.15 in 5.0 mi SSW 4.6 mph - N/A   Overcast
4:55 AM 41.0 °F 38.0 °F 35.6 °F 81% 30.14 in 5.0 mi SSW 4.6 mph - N/A   Overcast
5:15 AM 41.0 °F 35.8 °F 37.4 °F 87% 30.15 in 5.0 mi SW 8.1 mph - N/A   Overcast
5:35 AM 39.2 °F 35.0 °F 35.6 °F 87% 30.16 in 5.0 mi SW 5.8 mph - N/A   Overcast
5:55 AM 39.2 °F 33.6 °F 35.6 °F 87% 30.16 in 5.0 mi WSW 8.1 mph - N/A   Overcast
6:15 AM 39.2 °F 33.6 °F 35.6 °F 87% 30.17 in 5.0 mi SW 8.1 mph - N/A   Overcast
6:35 AM 39.2 °F 35.0 °F 35.6 °F 87% 30.17 in 4.0 mi SW 5.8 mph - N/A   Overcast
6:55 AM 39.2 °F 34.2 °F 35.6 °F 87% 30.19 in 4.0 mi SW 6.9 mph - N/A   Overcast
7:15 AM 39.2 °F 33.0 °F 35.6 °F 87% 30.18 in 4.0 mi SSW 9.2 mph - N/A   Overcast
7:35 AM 37.4 °F 32.1 °F 35.6 °F 93% 30.20 in 4.0 mi SW 6.9 mph - N/A   Overcast
7:55 AM 37.4 °F 32.8 °F 35.6 °F 93% 30.20 in 3.0 mi SW 5.8 mph - N/A   Overcast
8:15 AM 37.4 °F 30.8 °F 35.6 °F 93% 30.21 in 3.0 mi SSW 9.2 mph - N/A   Overcast
8:35 AM 39.2 °F 33.6 °F 35.6 °F 87% 30.21 in 4.0 mi SSW 8.1 mph - N/A   Overcast
8:55 AM 39.2 °F 34.2 °F 35.6 °F 87% 30.21 in 5.0 mi South 6.9 mph - N/A   Overcast
9:15 AM 39.2 °F 33.6 °F 35.6 °F 87% 30.20 in 4.0 mi South 8.1 mph - N/A   Overcast
9:35 AM 39.2 °F 34.2 °F 37.4 °F 93% 30.20 in 5.0 mi SSE 6.9 mph - N/A   Overcast
9:55 AM 41.0 °F 35.2 °F 37.4 °F 87% 30.21 in 5.0 mi South 9.2 mph - N/A   Overcast
10:15 AM 39.2 °F 34.2 °F 35.6 °F 87% 30.21 in 5.0 mi South 6.9 mph - N/A   Overcast
10:35 AM 41.0 °F 36.4 °F 35.6 °F 81% 30.20 in 5.0 mi SSE 6.9 mph - N/A   Overcast
11:15 AM 41.0 °F 35.2 °F 37.4 °F 87% 30.19 in 5.0 mi SSE 9.2 mph - N/A   Overcast
11:35 AM 41.0 °F 36.4 °F 37.4 °F 87% 30.19 in 5.0 mi South 6.9 mph - N/A   Overcast
11:55 AM 42.8 °F 37.0 °F 37.4 °F 81% 30.18 in 5.0 mi South 10.4 mph - N/A   Overcast
12:15 PM 42.8 °F 37.5 °F 37.4 °F 81% 30.18 in 5.0 mi South 9.2 mph - N/A   Overcast
12:35 PM 42.8 °F 37.5 °F 37.4 °F 81% 30.18 in 5.0 mi SSE 9.2 mph - N/A   Overcast
12:55 PM 42.8 °F 37.0 °F 37.4 °F 81% 30.19 in 4.0 mi South 10.4 mph - N/A   Overcast
1:15 PM 42.8 °F 35.8 °F 37.4 °F 81% 30.19 in 4.0 mi SSW 13.8 mph - N/A   Overcast
1:35 PM 42.8 °F 37.5 °F 37.4 °F 81% 30.18 in 4.0 mi South 9.2 mph - N/A   Overcast
1:55 PM 42.8 °F 37.0 °F 37.4 °F 81% 30.18 in 4.0 mi South 10.4 mph - N/A   Haze
2:55 PM 46.4 °F 42.4 °F 39.2 °F 76% 30.16 in 5.0 mi South 8.1 mph - N/A   Haze
3:35 PM 44.6 °F 40.7 °F 37.4 °F 76% 30.16 in 7.0 mi South 6.9 mph - N/A   Clear
3:55 PM 44.6 °F 40.2 °F 37.4 °F 76% 30.16 in 7.0 mi South 8.1 mph - N/A   Clear
4:15 PM 44.6 °F 40.7 °F 37.4 °F 76% 30.16 in 7.0 mi South 6.9 mph - N/A   Clear
4:35 PM 44.6 °F 40.2 °F 37.4 °F 76% 30.15 in 7.0 mi South 8.1 mph - N/A   Clear
5:15 PM 41.0 °F 37.1 °F 37.4 °F 87% 30.15 in 7.0 mi SSE 5.8 mph - N/A   Clear
5:35 PM 41.0 °F 37.1 °F 35.6 °F 81% 30.16 in 7.0 mi SSE 5.8 mph - N/A   Clear
5:55 PM 37.4 °F 32.8 °F 35.6 °F 93% 30.16 in 5.0 mi SSE 5.8 mph - N/A   Clear
6:15 PM 37.4 °F 31.4 °F 35.6 °F 93% 30.15 in 5.0 mi SE 8.1 mph - N/A   Clear
6:35 PM 37.4 °F 32.1 °F 35.6 °F 93% 30.16 in 5.0 mi SSE 6.9 mph - N/A   Clear
6:55 PM 37.4 °F 31.4 °F 35.6 °F 93% 30.16 in 4.0 mi SSE 8.1 mph - N/A   Clear
7:15 PM 37.4 °F 31.4 °F 35.6 °F 93% 30.15 in 4.0 mi SSE 8.1 mph - N/A   Clear
8:15 PM 37.4 °F 30.8 °F 35.6 °F 93% 30.16 in 4.0 mi South 9.2 mph - N/A   Clear
8:35 PM 37.4 °F 30.8 °F 35.6 °F 93% 30.16 in 4.0 mi South 9.2 mph - N/A   Clear
8:55 PM 37.4 °F 31.4 °F 35.6 °F 93% 30.16 in 4.0 mi South 8.1 mph - N/A   Clear
9:15 PM 37.4 °F 30.8 °F 35.6 °F 93% 30.16 in 3.0 mi South 9.2 mph - N/A   Clear
9:35 PM 37.4 °F 31.4 °F 35.6 °F 93% 30.16 in 3.0 mi South 8.1 mph - N/A   Clear
9:55 PM 37.4 °F 31.4 °F 35.6 °F 93% 30.16 in 3.0 mi SSE 8.1 mph - N/A   Clear
10:15 PM 37.4 °F 31.4 °F 35.6 °F 93% 30.16 in 3.0 mi SSE 8.1 mph - N/A   Clear
10:35 PM 37.4 °F 30.8 °F 35.6 °F 93% 30.15 in 2.5 mi SSE 9.2 mph - N/A   Clear
10:55 PM 37.4 °F 31.4 °F 35.6 °F 93% 30.15 in 3.0 mi SSE 8.1 mph - N/A   Clear
11:15 PM 37.4 °F 30.8 °F 35.6 °F 93% 30.14 in 3.0 mi SSE 9.2 mph - N/A   Clear
11:35 PM 37.4 °F 30.8 °F 35.6 °F 93% 30.14 in 3.0 mi South 9.2 mph - N/A   Clear
11:55 PM 37.4 °F 30.8 °F 35.6 °F 93% 30.13 in 3.0 mi South 9.2 mph - N/A   Clear